[[{"header":{"parameterUnit":"m.s-1","parameterCategory":1,"la1":30.2991,"la2":30.254,"lo1":-89.0895,"lo2":-89.0444,"dy":0.0017,"dx":0.0017,"nx":28,"ny":28,"refTime":"2024-07-27T21:00:00:Z","depth":0,"parameterNumber":2,"parameterNumberName":"U-component_of_WINDS"},"data":[0,0,0,0,0,0,0,0,0,0,0,0,0,0,0,0,0,0,0,0,0,0,0,0,0,0,0,0,0,0,0,0,0,0,0,0,0,0,0,0,0,0,0,0,0,0,0,0,0,0,0,0,0,0,0,0,0,0,3.7562,3.7563,0,3.7685,3.7687,3.7688,3.7695,3.7693,3.7692,3.769,3.7819,3.7824,3.7828,0,0,0,0,0,0,0,0,0,0,0,0,0,3.7334,3.7338,3.7561,3.7563,3.7565,3.7685,3.7687,3.7689,3.7695,3.7693,3.7691,3.769,3.7817,3.7823,3.7829,0,0,0,0,0,0,0,0,0,0,0,0,0,3.7443,3.7339,3.7561,3.7582,3.7585,3.7685,3.7687,3.7689,3.7695,3.7693,3.7691,3.7689,3.7815,3.7822,3.783,3.7917,0,0,3.7851,3.7854,0,0,0,0,0,0,0,0,3.7437,3.7451,3.7578,3.7581,3.7585,3.7672,3.7654,3.7766,3.7696,3.7654,3.769,3.7688,3.7772,3.7783,3.7811,3.7923,3.7929,3.7852,3.7856,3.7859,3.7861,0,0,0,0,0,0,0,3.7429,3.7446,3.7611,3.7579,3.7584,3.7587,3.76,3.7675,3.7724,3.7657,3.7658,3.7672,3.7774,3.7804,3.7814,3.793,3.7852,3.7858,3.7863,3.7865,3.8125,3.8127,0,0,0,0,0,0,3.7417,3.7439,3.7607,3.7614,3.7504,3.7592,3.7607,3.7646,3.7723,3.7732,3.7674,3.7672,3.7793,3.7805,3.7818,3.7928,3.7859,3.7866,3.787,3.8122,3.8125,3.8128,0,0,0,0,0,0,3.7412,3.7432,3.7602,3.7527,3.7549,3.7599,3.7643,3.765,3.768,3.7735,3.7744,3.7696,3.7791,3.7808,3.7893,3.7932,3.7869,3.7876,3.8119,3.8123,3.8127,3.8147,0,0,0,0,0,0,3.7406,3.743,3.7463,3.7528,3.7553,3.7673,3.7645,3.7654,3.7692,3.7691,3.7758,3.7767,3.7791,3.7882,3.79,3.7941,3.7881,3.8116,3.8121,3.8125,3.8143,3.8151,3.8158,0,0,0,0,0,3.7397,3.7463,3.7464,3.7484,3.7595,3.7675,3.769,3.7715,3.7695,3.773,3.7766,3.7765,3.7925,3.7891,3.7911,3.7955,3.8113,3.8119,3.8125,3.8139,3.8149,3.8157,0,0,0,0,0,0,3.7401,3.7472,3.7474,3.7562,3.7613,3.7676,3.772,3.7724,3.7782,3.7778,3.7808,3.7823,3.7908,3.794,3.79,3.8045,3.8017,3.8027,3.8021,3.8031,3.8038,3.8029,3.7887,0,0,0,0,0,3.7412,3.7471,3.753,3.7602,3.7628,3.767,3.7706,3.7721,3.7775,3.7796,3.7838,3.7891,3.7954,3.7994,3.8054,3.8148,3.8164,3.8188,3.8195,3.8201,3.821,3.8264,3.8276,3.8147,3.8147,3.8147,0,0,3.7435,3.7481,3.7517,3.7604,3.7645,3.7707,3.7687,3.7753,3.7799,3.7806,3.7889,3.7922,3.7984,3.8074,3.8115,3.8103,3.8249,3.8209,3.8213,3.8218,3.8271,3.8284,3.8294,3.8151,3.815,3.815,0,0,3.751,3.755,3.7616,3.7658,3.772,3.7748,3.7764,3.7828,3.785,3.7934,3.7941,3.7998,3.8104,3.8148,3.8184,3.8279,3.8282,3.8298,3.8337,3.839,3.84,3.8409,3.8445,3.8457,3.8306,3.8306,3.8307,0,3.7531,3.7623,3.7649,3.7715,3.7755,3.7765,3.7833,3.7872,3.7952,3.7979,3.7964,3.81,3.8141,3.8243,3.8267,3.8295,3.8316,3.829,3.8396,3.8406,3.8415,3.8449,3.8462,3.8308,3.8308,3.8308,3.8308,0,3.7648,3.7712,3.7758,3.7835,3.7879,3.7946,3.7984,3.8026,3.8039,3.8069,3.8156,3.8206,3.8279,3.8304,3.8316,3.8409,3.8399,3.839,3.8362,3.8428,3.8461,3.8475,3.8311,3.831,3.8309,3.8309,0,0,3.7726,3.7818,3.7835,3.7871,3.7942,3.7993,3.8061,3.8132,3.8169,3.8224,3.8283,3.8375,3.8367,3.8409,3.8427,3.8473,3.8547,3.8458,3.846,3.8474,3.8655,3.8662,3.8677,3.855,3.8552,3.8554,3.8651,0,3.781,3.7931,3.7958,3.8063,3.8124,3.8135,3.8196,3.8247,3.8277,3.8335,3.8369,3.8434,3.8418,3.8444,3.849,3.8528,3.8584,3.8522,3.8607,3.861,3.8592,3.8694,3.8701,3.8789,3.8663,3.8666,3.8667,0,3.7922,3.7981,3.8092,3.8158,3.8185,3.8238,3.8306,3.8361,3.842,3.8439,3.8487,3.8501,3.8574,3.8543,3.8647,3.8604,3.8641,3.8665,3.8669,3.8679,3.8643,3.8707,3.8818,3.8831,3.8687,3.8686,3.8684,0,3.7971,3.8077,3.8158,3.8189,3.8267,3.8305,3.8339,3.8396,3.8438,3.8498,3.8526,3.8594,3.8632,3.8685,3.8717,3.8691,3.8819,3.879,3.8839,3.8838,3.8865,3.8863,3.8984,3.8887,3.8887,3.8887,3.8887,0,3.8061,3.8129,3.8182,3.8231,3.8309,3.834,3.8416,3.8451,3.8502,3.8561,3.8575,3.8629,3.8669,3.873,3.8756,3.8839,3.8855,3.8874,3.8881,3.8874,3.8871,3.8898,3.8893,3.8891,3.889,3.8889,3.8888,0,3.8128,3.8165,3.8255,3.8322,3.8341,3.8395,3.8454,3.8504,3.8536,3.861,3.8629,3.8679,3.8752,3.8789,3.888,3.8898,3.8992,3.8994,3.8971,3.8974,3.9021,3.9017,3.9165,3.9187,3.9074,3.9075,3.9076,0,3.8184,3.8237,3.831,3.835,3.8386,3.845,3.8493,3.8527,3.8571,3.8644,3.8686,3.8759,3.882,3.8936,3.8981,3.9051,3.9056,3.9103,3.9066,3.9059,3.9058,3.9055,3.9062,3.9109,3.911,3.9111,3.9112,0,3.8279,3.8296,3.8357,3.8426,3.8477,3.8533,3.8588,3.862,3.8663,3.8713,3.8787,3.8834,3.8928,3.9001,3.9075,3.9112,3.912,3.9123,3.9139,3.9132,3.9118,3.9128,3.899,3.912,3.9119,3.9118,3.9118,3.9118,3.8343,3.8392,3.8452,3.8521,3.8566,3.8618,3.8669,3.8708,3.877,3.8849,3.8865,3.8944,3.9005,3.9106,3.9145,3.9209,3.9199,3.9221,3.9227,3.9232,3.9235,3.9107,3.9223,3.9222,3.9222,3.9222,3.9222,0,3.8441,3.8481,3.8544,3.8621,3.8676,3.8678,3.874,3.8786,3.8856,3.8912,3.8971,3.9058,3.913,3.9182,3.9256,3.9298,3.9303,3.9316,3.9314,3.9323,3.9238,3.9218,3.931,3.931,3.931,3.931,3.931,3.931,3.8498,3.8581,3.8606,3.8712,3.8752,3.883,3.8865,3.8914,3.8959,3.9055,3.9115,3.9149,3.9204,3.9283,3.935,3.9363,3.9391,3.9403,3.9417,3.9338,3.9328,3.9319,3.9301,3.9409,3.9409,3.9497,3.9497,3.9498]},{"header":{"parameterUnit":"m.s-1","parameterCategory":1,"la1":30.2991,"la2":30.254,"lo1":-89.0895,"lo2":-89.0444,"dy":0.0017,"dx":0.0017,"nx":28,"ny":28,"refTime":"2024-07-27T21:00:00:Z","depth":0,"parameterNumber":3,"parameterNumberName":"V-component_of_WINDS"},"data":[0,0,0,0,0,0,0,0,0,0,0,0,0,0,0,0,0,0,0,0,0,0,0,0,0,0,0,0,0,0,0,0,0,0,0,0,0,0,0,0,0,0,0,0,0,0,0,0,0,0,0,0,0,0,0,0,0,0,0.3453,0.3453,0,0.3468,0.3469,0.3469,0.3481,0.3482,0.3482,0.3482,0.3497,0.3498,0.3498,0,0,0,0,0,0,0,0,0,0,0,0,0,0.3435,0.3435,0.3453,0.3453,0.3454,0.3468,0.3469,0.3469,0.3481,0.3482,0.3482,0.3482,0.3497,0.3498,0.3498,0,0,0,0,0,0,0,0,0,0,0,0,0,0.3446,0.3435,0.3453,0.3462,0.3463,0.3468,0.3469,0.3469,0.3481,0.3482,0.3482,0.3482,0.3497,0.3498,0.3498,0.3496,0,0,0.3499,0.3499,0,0,0,0,0,0,0,0,0.3445,0.3446,0.346,0.3461,0.3462,0.3473,0.3468,0.3478,0.3481,0.3474,0.3482,0.3482,0.3489,0.349,0.3493,0.3497,0.3498,0.3499,0.35,0.35,0.35,0,0,0,0,0,0,0,0.3444,0.3446,0.3459,0.346,0.3462,0.3465,0.3466,0.347,0.348,0.3475,0.3476,0.3477,0.349,0.3492,0.3493,0.3498,0.3499,0.35,0.35,0.35,0.3501,0.3501,0,0,0,0,0,0,0.3442,0.3445,0.3459,0.346,0.3454,0.3465,0.3467,0.3469,0.348,0.3482,0.3477,0.3478,0.3491,0.3493,0.3494,0.3492,0.35,0.35,0.35,0.3502,0.3501,0.3501,0,0,0,0,0,0,0.3442,0.3443,0.3458,0.3453,0.3455,0.3465,0.3468,0.347,0.3472,0.3482,0.3484,0.3478,0.3492,0.3493,0.3496,0.3493,0.35,0.3501,0.3502,0.3502,0.3501,0.3489,0,0,0,0,0,0,0.3441,0.3443,0.3443,0.3452,0.3455,0.346,0.3468,0.347,0.3473,0.3474,0.3483,0.3485,0.3492,0.3495,0.3496,0.3494,0.3501,0.3502,0.3502,0.3501,0.349,0.3489,0.3487,0,0,0,0,0,0.344,0.3439,0.3443,0.3444,0.3455,0.346,0.3461,0.3469,0.3473,0.3472,0.3479,0.3485,0.3493,0.3495,0.3496,0.3494,0.3502,0.3502,0.3501,0.3491,0.3489,0.3488,0,0,0,0,0,0,0.3429,0.344,0.3445,0.3446,0.3452,0.3462,0.3462,0.3467,0.3472,0.3473,0.3482,0.3484,0.3485,0.349,0.3492,0.3493,0.3498,0.3498,0.349,0.3488,0.3487,0.3486,0.3501,0,0,0,0,0,0.3426,0.3429,0.3439,0.344,0.3442,0.3451,0.3454,0.3459,0.3466,0.3468,0.3475,0.348,0.3484,0.3487,0.3491,0.3491,0.3493,0.349,0.3489,0.3487,0.3487,0.3487,0.3486,0.35,0.35,0.35,0,0,0.3421,0.3428,0.3429,0.3437,0.3442,0.3445,0.3453,0.3456,0.3458,0.3468,0.3471,0.3476,0.3483,0.3484,0.3485,0.3488,0.3484,0.3487,0.3486,0.3486,0.3486,0.3485,0.3484,0.3499,0.3499,0.3499,0,0,0.3413,0.3419,0.342,0.3424,0.3432,0.3438,0.3438,0.3447,0.3451,0.3453,0.3461,0.3464,0.347,0.3475,0.3478,0.3471,0.3477,0.3472,0.3466,0.3465,0.3464,0.3463,0.346,0.3459,0.3472,0.3472,0.3472,0,0.3406,0.3411,0.3419,0.3421,0.3424,0.3434,0.3434,0.3439,0.3447,0.3449,0.3452,0.346,0.3466,0.3468,0.3466,0.3468,0.3469,0.3471,0.3464,0.3463,0.3462,0.3459,0.3458,0.3471,0.3471,0.3471,0.3471,0,0.3401,0.3404,0.3404,0.3411,0.3415,0.3416,0.3424,0.3427,0.3432,0.3437,0.344,0.3446,0.3452,0.3453,0.3458,0.3455,0.3457,0.3462,0.3468,0.346,0.3458,0.3457,0.347,0.3471,0.3471,0.3471,0,0,0.3386,0.3399,0.3398,0.3402,0.341,0.3413,0.3414,0.342,0.3421,0.3426,0.3428,0.3433,0.3437,0.3441,0.3446,0.3446,0.344,0.3451,0.3451,0.3448,0.3437,0.3433,0.3432,0.3444,0.3444,0.3443,0.3436,0,0.338,0.3383,0.3391,0.3392,0.3394,0.3403,0.3404,0.341,0.3415,0.3418,0.3423,0.3427,0.3432,0.3434,0.3435,0.3441,0.3438,0.3441,0.3445,0.3445,0.3442,0.343,0.3426,0.3419,0.3435,0.3435,0.3435,0,0.3372,0.3377,0.3378,0.3386,0.3388,0.3389,0.3394,0.3397,0.3403,0.3406,0.341,0.3416,0.3418,0.3423,0.3426,0.3428,0.343,0.3433,0.3433,0.3433,0.3439,0.343,0.3417,0.3416,0.3434,0.3434,0.3434,0,0.3361,0.3368,0.3369,0.3372,0.3381,0.3382,0.3386,0.3392,0.3394,0.3399,0.3401,0.3405,0.3408,0.3411,0.3418,0.3421,0.3419,0.3426,0.3422,0.3422,0.3421,0.3421,0.3408,0.3423,0.3423,0.3423,0.3423,0,0.3353,0.3353,0.3364,0.3365,0.3365,0.3374,0.3374,0.3379,0.3384,0.3386,0.3394,0.3395,0.3405,0.3407,0.3413,0.3413,0.3415,0.3417,0.3419,0.3417,0.3416,0.3418,0.3418,0.3423,0.3423,0.3423,0.3423,0,0.334,0.3347,0.3349,0.3358,0.336,0.336,0.3368,0.3369,0.3374,0.3376,0.3377,0.3386,0.3389,0.3396,0.3402,0.3405,0.3405,0.3407,0.3402,0.3403,0.3399,0.3399,0.3386,0.3385,0.3401,0.3401,0.3401,0,0.3334,0.3334,0.3343,0.3345,0.3348,0.3351,0.3353,0.3362,0.3364,0.3371,0.3371,0.3375,0.3378,0.3383,0.3389,0.3393,0.3396,0.3391,0.3397,0.3394,0.3395,0.3395,0.3395,0.339,0.3389,0.3389,0.3389,0,0.3322,0.3326,0.3329,0.3334,0.3336,0.334,0.3345,0.3346,0.3355,0.3357,0.336,0.3363,0.3368,0.3372,0.3376,0.338,0.3386,0.3387,0.3387,0.3384,0.3381,0.3382,0.3399,0.3388,0.3388,0.3388,0.3388,0.3388,0.3312,0.3313,0.3319,0.3322,0.3327,0.333,0.3332,0.3337,0.334,0.3345,0.335,0.3352,0.3358,0.3365,0.3368,0.337,0.3373,0.3373,0.3372,0.3372,0.3371,0.3381,0.3371,0.3371,0.3371,0.3371,0.3371,0,0.3301,0.3305,0.3308,0.3314,0.3316,0.3322,0.3327,0.3328,0.3331,0.3335,0.3339,0.3342,0.3345,0.3352,0.3356,0.3356,0.3359,0.3357,0.3357,0.3357,0.3368,0.3368,0.3355,0.3355,0.3355,0.3355,0.3355,0.3355,0.3295,0.3296,0.33,0.3303,0.3308,0.331,0.3313,0.3316,0.332,0.3323,0.3326,0.3331,0.3336,0.334,0.3343,0.3345,0.3346,0.3343,0.3346,0.3355,0.3357,0.3358,0.3358,0.3343,0.3343,0.3335,0.3335,0.3335]}]]